TOM23 EGKK-EGPH

Flight info

Callsign TOM23
Flight time N/A
Altitude 38000
Route LAM1Z LAM L10 BPK UN601 RIBEL DCT INPIP INPIP1E
Aircraft A339/M-V/N

Departure

Time 2026-05-04 20:06
Airport London Gatwick Airport (EGKK)

Arrival

Time N/A
Airport Edinburgh Airport (EGPH)
Time Latitude Longitude Altitude Speed Heading
2026-05-04 19:05 51.15852 -0.17523 211 ft 0 kts 347°
2026-05-04 19:29 51.15846 -0.17521 220 ft 2 kts 347°
2026-05-04 19:30 51.15832 -0.17516 215 ft 2 kts 347°
2026-05-04 19:30 51.15818 -0.17511 215 ft 2 kts 347°
2026-05-04 19:30 51.15804 -0.17507 211 ft 2 kts 337°
2026-05-04 19:30 51.15791 -0.17498 206 ft 2 kts 315°
2026-05-04 19:31 51.15780 -0.17482 191 ft 2 kts 294°
2026-05-04 19:31 51.15774 -0.17461 196 ft 2 kts 272°
2026-05-04 19:31 51.15774 -0.17438 219 ft 3 kts 261°
2026-05-04 19:31 51.15777 -0.17405 222 ft 3 kts 259°
2026-05-04 19:32 51.15781 -0.17373 214 ft 3 kts 256°
2026-05-04 19:32 51.15786 -0.17340 211 ft 3 kts 256°
2026-05-04 19:32 51.15788 -0.17330 212 ft 3 kts 256°
2026-05-04 19:33 51.15794 -0.17296 219 ft 3 kts 258°
2026-05-04 19:33 51.15797 -0.17263 215 ft 3 kts 261°
2026-05-04 19:33 51.15801 -0.17230 215 ft 3 kts 257°
2026-05-04 19:33 51.15801 -0.17225 216 ft 0 kts 257°
2026-05-04 19:43 51.15801 -0.17226 211 ft 1 kts 257°
2026-05-04 19:44 51.15794 -0.17273 213 ft 7 kts 257°
2026-05-04 19:44 51.15780 -0.17377 215 ft 12 kts 257°
2026-05-04 19:44 51.15760 -0.17525 215 ft 16 kts 258°
2026-05-04 19:44 51.15734 -0.17717 220 ft 19 kts 258°
2026-05-04 19:45 51.15702 -0.17945 218 ft 23 kts 257°
2026-05-04 19:45 51.15666 -0.18206 216 ft 25 kts 258°
2026-05-04 19:45 51.15621 -0.18348 217 ft 7 kts 203°
2026-05-04 19:45 51.15566 -0.18341 218 ft 9 kts 170°
2026-05-04 19:46 51.15495 -0.18314 214 ft 11 kts 169°
2026-05-04 19:46 51.15440 -0.18297 219 ft 13 kts 169°
2026-05-04 19:46 51.15345 -0.18266 215 ft 15 kts 168°
2026-05-04 19:46 51.15237 -0.18229 219 ft 17 kts 167°
2026-05-04 19:47 51.15192 -0.18263 217 ft 5 kts 234°
2026-05-04 19:47 51.15188 -0.18307 219 ft 7 kts 260°
2026-05-04 19:47 51.15177 -0.18396 216 ft 10 kts 258°
2026-05-04 19:47 51.15161 -0.18515 218 ft 12 kts 257°
2026-05-04 19:48 51.15141 -0.18659 218 ft 15 kts 257°
2026-05-04 19:48 51.15117 -0.18830 213 ft 17 kts 258°
2026-05-04 19:48 51.15092 -0.19020 216 ft 18 kts 257°
2026-05-04 19:48 51.15063 -0.19229 211 ft 20 kts 257°
2026-05-04 19:49 51.15031 -0.19457 213 ft 22 kts 257°
2026-05-04 19:49 51.14997 -0.19699 216 ft 23 kts 257°
2026-05-04 19:49 51.14964 -0.19951 214 ft 24 kts 256°
2026-05-04 19:49 51.14925 -0.20223 216 ft 25 kts 258°
2026-05-04 19:50 51.14888 -0.20503 213 ft 27 kts 257°
2026-05-04 19:50 51.14847 -0.20795 211 ft 27 kts 258°
2026-05-04 19:50 51.14806 -0.21091 212 ft 22 kts 257°
2026-05-04 19:50 51.14788 -0.21175 217 ft 8 kts 251°
2026-05-04 19:51 51.14777 -0.21233 211 ft 0 kts 256°
2026-05-04 19:52 51.14777 -0.21238 211 ft 2 kts 256°
2026-05-04 19:52 51.14770 -0.21281 211 ft 6 kts 256°
2026-05-04 19:52 51.14764 -0.21322 211 ft 0 kts 257°
2026-05-04 19:55 51.14762 -0.21340 211 ft 4 kts 257°
2026-05-04 19:56 51.14741 -0.21389 221 ft 6 kts 220°
2026-05-04 19:56 51.14733 -0.21393 218 ft 0 kts 204°
2026-05-04 19:59 51.14723 -0.21399 220 ft 3 kts 200°
2026-05-04 19:59 51.14689 -0.21391 217 ft 6 kts 162°
2026-05-04 19:59 51.14664 -0.21362 217 ft 0 kts 144°
2026-05-04 20:02 51.14663 -0.21361 217 ft 1 kts 144°
2026-05-04 20:03 51.14646 -0.21345 220 ft 5 kts 151°
2026-05-04 20:03 51.14617 -0.21332 211 ft 0 kts 165°
2026-05-04 20:04 51.14597 -0.21324 219 ft 6 kts 165°
2026-05-04 20:04 51.14545 -0.21276 220 ft 12 kts 140°
2026-05-04 20:04 51.14526 -0.21135 221 ft 15 kts 76°
2026-05-04 20:04 51.14532 -0.21093 218 ft 0 kts 78°
2026-05-04 20:05 51.14549 -0.20959 219 ft 42 kts 78°
2026-05-04 20:05 51.14675 -0.20053 213 ft 122 kts 77°
2026-05-04 20:05 51.14902 -0.18440 240 ft 174 kts 78°
2026-05-04 20:06 51.15142 -0.16489 740 ft 182 kts 79°
2026-05-04 20:06 51.15348 -0.14497 1398 ft 185 kts 79°
2026-05-04 20:06 51.15592 -0.12462 2046 ft 182 kts 77°
2026-05-04 20:06 51.15935 -0.10532 2646 ft 184 kts 69°
2026-05-04 20:07 51.16405 -0.08600 3197 ft 195 kts 70°
2026-05-04 20:07 51.16922 -0.06467 3551 ft 216 kts 63°
2026-05-04 20:07 51.17767 -0.04375 3927 ft 236 kts 53°
2026-05-04 20:07 51.18783 -0.02203 4459 ft 247 kts 52°
2026-05-04 20:08 51.19844 0.00010 5046 ft 253 kts 51°
2026-05-04 20:08 51.20769 0.01923 5181 ft 257 kts 51°
2026-05-04 20:08 51.21864 0.04183 5024 ft 253 kts 51°
2026-05-04 20:08 51.22941 0.06410 5031 ft 254 kts 51°
2026-05-04 20:09 51.24022 0.08653 5066 ft 257 kts 52°
2026-05-04 20:09 51.24941 0.11165 5347 ft 273 kts 67°
2026-05-04 20:09 51.25429 0.14086 6252 ft 272 kts 80°
2026-05-04 20:09 51.25755 0.17110 6741 ft 277 kts 79°
2026-05-04 20:10 51.26100 0.20156 6954 ft 278 kts 79°
2026-05-04 20:10 51.26451 0.23154 7032 ft 278 kts 79°
2026-05-04 20:10 51.26813 0.26199 7020 ft 278 kts 79°
2026-05-04 20:10 51.27175 0.29246 7023 ft 278 kts 79°
2026-05-04 20:11 51.27620 0.32220 7022 ft 277 kts 68°
2026-05-04 20:11 51.28684 0.34762 7023 ft 277 kts 43°
2026-05-04 20:11 51.30318 0.36353 7022 ft 275 kts 18°
2026-05-04 20:11 51.31566 0.36717 7020 ft 275 kts
2026-05-04 20:12 51.35839 0.34309 7023 ft 274 kts 332°